YUZGU 11 (RS5S) (53310 NORAD) Tracking and Keplerian Element Data

This shows tracking and keplerian element data for the satellite.

Feedback or suggestion? Click here.




ElementValue
Catalog53310
NameYUZGU 11 (RS5S)
Epoch Orbit1052
Epoch Day270.07827431
Epoch Year2022
RAAN190.6406
Inclination51.64
Eccentricity0.0001516
Argument of Perigee216.6131
Mean Anonmoly143.4757
Mean Motion15.55347312
Decay Rate0.00056237
L11 53310U 98067TV 22270.07827431 .00056237 00000+0 81369-3 0 9999
L22 53310 51.6400 190.6406 0001516 216.6131 143.4757 15.55347312 10524

Live tracking and technical data element details for YUZGU 11 (RS5S) (NORAD 53310). YUZGU 11 (RS5S) can be tracked NOW for your location showing map with azimuth and elevation plus other details from your city location.

Track the satellite on the map from your city or location and see movement details for azimuth, elevation, latitude, longitude, range, height, and movement on the map or in text.







IsCatalogInMostPopularTable: catalog: 53310, numindb: 3
Update: records affected: 1



GetName: 53310 YUZGU 11 (RS5S)

Hit Count: updated at: Wed, 28 Sep 2022 22:39:25 GMT